Weather History for KLAN - November, 2012

Change the Weather History Date:

Thursday, November 8, 2012

  Actual Average Record
Temperature  
Mean Temperature 37 °F 43 °F  
Max Temperature 50 °F 50 °F 71 °F (1915)
Min Temperature 23 °F 35 °F 11 °F (1991)
Degree Days  
Heating Degree Days 28 22  
Month to date heating degree days 237 169  
Since 1 July heating degree days 859 819  
Cooling Degree Days 0 0  
Month to date cooling degree days 0 0  
Year to date cooling degree days 940 625  
Moisture  
Dew Point 27 °F    
Average Humidity 69    
Maximum Humidity 92    
Minimum Humidity 46    
Precipitation  
Precipitation 0.00 in 0.09 in 1.70 in (1888)
Month to date precipitation T 0.75  
Year to date precipitation 26.05 27.87  
Snow  
Snow 0.00 in 0.10 in 12.10 in (1921)
Month to date snowfall 0.0 0.4  
Since 1 July snowfall 0.1 0.8  
Since 1 September snowfall 0.1 0.8  
Snow Depth 0.00 in    
Sea Level Pressure  
Sea Level Pressure 30.19 in    
Wind  
Wind Speed 3 mph (SW)    
Max Wind Speed 12 mph    
Max Gust Speed 14 mph    
Visibility 7 miles    
Events      
T = Trace of Precipitation, MM = Missing Value Source: NWS Daily Summary

Daily Weather History Graph

Daily Weather History Graph

Search for Another Location

Airport or City:

Trip Planner

Search our weather history database for the weather conditions in past years. The results will help you decide how hot, cold, wet, or windy it might be!

Date:

Astronomy

Nov. 08, 2012 Rise Set
Actual Time 7:21 AM EST 5:21 PM EST
Civil Twilight 6:51 AM EST 5:51 PM EST
Nautical Twilight 6:18 AM EST 6:25 PM EST
Astronomical Twilight 5:44 AM EST 6:58 PM EST
Moon 1:08 AM EST (11/8) 2:09 PM EST (11/8)
Length of Visible Light 10h 59m
Length of Day
9h 59m
Waning Crescent, 33% of the Moon is Illuminated
Nov 8
Waning Crescent
Nov 13
New
Nov 20
First Quarter
Nov 28
Full
Dec 6
Last Quarter

Hourly Weather History & Observations

Time (EST) Temp. Windchill Dew Point Humidity Pressure Visibility Wind Dir Wind Speed Gust Speed Precip Events Conditions
12:53 AM 28.9 °F - 26.1 °F 89% 30.18 in 5.0 mi Calm Calm - N/A   Clear
1:53 AM 27.0 °F - 24.1 °F 89% 30.18 in 5.0 mi Calm Calm - N/A   Clear
2:53 AM 24.8 °F - 23.0 °F 93% 30.17 in 5.0 mi Calm Calm - N/A   Clear
3:53 AM 26.1 °F - 24.1 °F 92% 30.20 in 4.0 mi Calm Calm - N/A   Clear
4:53 AM 25.0 °F - 21.9 °F 88% 30.21 in 4.0 mi Calm Calm - N/A   Clear
5:53 AM 25.0 °F - 21.9 °F 88% 30.22 in 5.0 mi Calm Calm - N/A   Clear
6:53 AM 25.0 °F - 21.9 °F 88% 30.23 in 6.0 mi Calm Calm - N/A   Clear
7:53 AM 25.0 °F - 23.0 °F 92% 30.24 in 3.0 mi Calm Calm - N/A   Clear
8:53 AM 30.9 °F - 27.0 °F 85% 30.26 in 4.0 mi Calm Calm - N/A   Partly Cloudy
9:53 AM 37.9 °F 34.4 °F 30.9 °F 76% 30.25 in 5.0 mi SE 4.6 mph - N/A   Haze
10:53 AM 41.0 °F 38.0 °F 30.0 °F 65% 30.25 in 8.0 mi SE 4.6 mph - N/A   Scattered Clouds
11:53 AM 45.0 °F 41.8 °F 30.0 °F 56% 30.22 in 10.0 mi South 5.8 mph - N/A   Scattered Clouds
12:53 PM 46.9 °F - 28.0 °F 48% 30.20 in 10.0 mi Variable 3.5 mph - N/A   Scattered Clouds
1:53 PM 48.9 °F - 28.9 °F 46% 30.18 in 10.0 mi WSW 5.8 mph - N/A   Mostly Cloudy
2:53 PM 48.0 °F - 30.0 °F 50% 30.17 in 10.0 mi WSW 4.6 mph - N/A   Mostly Cloudy
3:53 PM 48.0 °F - 28.9 °F 48% 30.17 in 10.0 mi WSW 9.2 mph - N/A   Mostly Cloudy
4:53 PM 46.0 °F 43.1 °F 28.9 °F 51% 30.17 in 10.0 mi South 5.8 mph - N/A   Mostly Cloudy
5:53 PM 45.0 °F 42.6 °F 30.0 °F 56% 30.17 in 10.0 mi SW 4.6 mph - N/A   Mostly Cloudy
6:53 PM 45.0 °F 41.2 °F 30.0 °F 56% 30.17 in 10.0 mi WSW 6.9 mph - N/A   Mostly Cloudy
7:53 PM 43.0 °F 40.3 °F 30.9 °F 62% 30.16 in 10.0 mi SW 4.6 mph - N/A   Overcast
8:53 PM 42.1 °F 39.2 °F 30.0 °F 62% 30.15 in 10.0 mi WSW 4.6 mph - N/A   Partly Cloudy
9:53 PM 37.9 °F 33.5 °F 30.0 °F 73% 30.16 in 8.0 mi SW 5.8 mph - N/A   Clear
10:53 PM 37.0 °F 33.3 °F 30.0 °F 76% 30.16 in 7.0 mi SW 4.6 mph - N/A   Clear
11:53 PM 36.0 °F 30.3 °F 30.0 °F 79% 30.15 in 7.0 mi SW 6.9 mph - N/A   Clear